Flag for U.S.A. Weather past 2 weeks in Shreveport, Louisiana, U.S.A.

Now
84 °F

Light rain. Broken clouds.


Feels Like: 90 °F
Forecast: 76 / 90 °F
Wind: 3 mph from Northwest

Location: Shreveport Regional Airport

Current Time: Sep 2, 2014 at 12:21:17 PM

Latest Report: Sep 2, 2014 at 11:56 AM


Visibility: 10 mi

Pressure: 30.03 "Hg

Humidity: 67%

Dew point: 72 °F

Location of ShreveportLocation

Historic Weather in Shreveport — Graph

°F

Shreveport temperature yesterday

Maximum temperature yesterday: 96 °F (at 3:56 PM)
Minimum temperature yesterday: 74 °F (at 1:56 AM)
Average temperature yesterday: 83 °F

Past Weeks' High & Low Weather Summary

 TemperatureHumidityPressure
High98 °F (Aug 24, 3:56 PM)96% (Aug 23, 6:56 AM)30.09 "Hg (Aug 23, 6:56 AM)
Low71 °F (Aug 23, 6:56 AM)34% (Aug 27, 3:56 PM)29.83 "Hg (Aug 29, 4:56 PM)
Average83 °F69%29.96 "Hg
* Reported Aug 18 10:56 AM — Sep 2 10:56 AM, Shreveport, Weather by CustomWeather, © 2014

Note: Actual official high and low records may vary slightly from our data, if they occured in-between our weather recording intervals... More about our weather records

Advertising

Shreveport weather history for previous 24 hours

 ConditionsComfort  
Time TempWeatherWind HumidityBarometerVisibility
10:56 AM
Sep 2
89 °FScattered clouds.7 mph59%30.02 "Hg10 mi
9:56 AM85 °FScattered clouds.12 mph72%30.01 "Hg10 mi
8:56 AM83 °FPartly sunny.8 mph79%29.98 "Hg10 mi
7:56 AM79 °FScattered clouds.5 mph90%29.98 "Hg10 mi
6:56 AM78 °FPartly cloudy.6 mph90%29.96 "Hg10 mi
5:56 AM78 °FMostly cloudy.5 mph93%29.94 "Hg10 mi
4:56 AM77 °FPassing clouds.8 mph94%29.93 "Hg10 mi
3:56 AM78 °FPassing clouds.7 mph90%29.93 "Hg10 mi
2:56 AM78 °FPassing clouds.6 mph90%29.93 "Hg10 mi
1:56 AM78 °FClear.6 mph90%29.95 "Hg10 mi
12:56 AM79 °FClear.7 mph88%29.94 "Hg10 mi
11:56 PM
Sep 1
80 °FClear.7 mph85%29.93 "Hg10 mi
10:56 PM81 °FClear.12 mph82%29.92 "Hg10 mi
9:56 PM82 °FPassing clouds.9 mph77%29.92 "Hg10 mi
8:56 PM83 °FPassing clouds.12 mph74%29.92 "Hg10 mi
7:56 PM85 °FScattered clouds.8 mph70%29.91 "Hg10 mi
6:56 PM89 °FScattered clouds.13 mph59%29.90 "Hg10 mi
5:56 PM95 °FScattered clouds.13 mph43%29.88 "Hg10 mi
4:56 PM94 °FScattered clouds.12 mph44%29.88 "Hg10 mi
3:56 PM96 °FScattered clouds.10 mph43%29.90 "Hg10 mi
2:56 PM94 °FPassing clouds.8 mph46%29.92 "Hg10 mi
1:56 PM92 °FBroken clouds.7 mph51%29.95 "Hg10 mi
12:56 PM92 °FScattered clouds.9 mph51%29.97 "Hg10 mi
Weather by CustomWeather, © 2014

See weather overviewHow to use our weather pages